KINEIS-5B

Last updated on Mon Sep 21 2026 00:02:54 GMT+0000 (Coordinated Universal Time)

1 62085U 24219E 26263.61303205 .00000669 00000+0 98791-4 0 9996 2 62085 98.0170 66.9660 0001433 8.5933 351.5302 14.78496087 98101
UTC large
Height (km)
Speed (km/s)
/
Latitude / Longitude
Inclination (degrees)
Orbital Period (minutes)
Azimuth
Elevation
Range (km)
Doppler Factor

Next 0 passes for location: London (51.5072 / 0.1276)

No passes found over London.
KINEIS-5B